sat.trackr.live / text

‹ back to catalog

STARLINK-34685

NORAD 64813 · 2025-150Z

PAYLOAD ACTIVE UNKNOWN

§ Identity

Operator
Country
US
Launch date
2025-07-16
Launch site
AFWTR
Launch vehicle
Mass (kg)
RCS (m²)

Purposes: comms

External: N2YO · Heavens-Above · Gunter

§ Orbital elements

Epoch: 2026-05-25T03:27:30.481920Z

Period
96.11 min
Inclination
70.0003°
Eccentricity
0.0002810
Mean motion
14.98334980 rev/d
Perigee alt
570.1 km
Apogee alt
574.0 km
Semi-major
6,950.2 km
B*
1.6683e-4
RAAN
301.8919°
Arg perigee
269.4720°
Mean anomaly
90.6117°
Rev number
4,796

§ Raw data

STARLINK-346851 64813U 25150Z   26145.14410280  .00001898  00000+0  16683-3 0  99952 64813  70.0003 301.8919 0002810 269.4720  90.6117 14.98334980 47965

JSON: /api/v1/satellites/64813 · /tle

For live sub-satellite position, see the globe view (requires WebGL).

§ Visibility from observer

Set your observer location to see the next 7 days of passes ≥ 10°. The values pass through the URL so the page stays shareable.

No JS? Fill the form by hand. The geolocation button needs JavaScript.